This is the latest recevied weather packets stored in our database for station/object K7KAR-2. If no packets are shown the sender has not sent any weather packets the latest 10 day(s).
| Time | Temp. | Humidity | Pressure | Rain* | Wind** | Luminosity | Snow |
|---|---|---|---|---|---|---|---|
| 1777764720 | 18.33° C | 11% | 1015.7 hPa | 0 mm | - | 271 W/m² | - |
| 1777764415 | 18.33° C | 12% | 1015.6 hPa | 0 mm | - | 236 W/m² | - |
| 1777764113 | 18.33° C | 12% | 1015.7 hPa | 0 mm | - | 310 W/m² | - |
| 1777763810 | 17.78° C | 12% | 1015.7 hPa | 0 mm | - | 245 W/m² | - |
| 1777763507 | 18.33° C | 13% | 1015.5 hPa | 0 mm | - | 237 W/m² | - |
| 1777763206 | 18.33° C | 11% | 1015.8 hPa | 0 mm | - | 318 W/m² | - |
| 1777762904 | 18.33° C | 12% | 1016 hPa | 0 mm | - | 282 W/m² | - |
| 1777762598 | 18.33° C | 11% | 1016.1 hPa | 0 mm | - | 284 W/m² | - |
| 1777762291 | 18.33° C | 12% | 1016 hPa | 0 mm | - | 350 W/m² | - |
| 1777761987 | 18.33° C | 11% | 1015.9 hPa | 0 mm | - | 352 W/m² | - |
| 1777761684 | 18.33° C | 10% | 1015.8 hPa | 0 mm | - | 325 W/m² | - |
| 1777761381 | 18.33° C | 11% | 1016.3 hPa | 0 mm | - | 323 W/m² | - |
| 1777761080 | 18.33° C | 11% | 1015.8 hPa | 0 mm | - | 238 W/m² | - |
| 1777760777 | 18.33° C | 11% | 1016.3 hPa | 0 mm | - | 311 W/m² | - |
| 1777760473 | 18.33° C | 11% | 1016 hPa | 0 mm | - | 256 W/m² | - |
| 1777760169 | 18.33° C | 11% | 1016.1 hPa | 0 mm | - | 314 W/m² | - |
| 1777759866 | 18.33° C | 10% | 1016.1 hPa | 0 mm | - | 301 W/m² | - |
| 1777759563 | 18.89° C | 10% | 1016.3 hPa | 0 mm | - | 356 W/m² | - |
| 1777759259 | 18.33° C | 10% | 1016.4 hPa | 0 mm | - | 424 W/m² | - |
| 1777758956 | 18.33° C | 10% | 1016.1 hPa | 0 mm | - | 344 W/m² | - |
| 1777758653 | 18.89° C | 10% | 1016.4 hPa | 0 mm | - | 339 W/m² | - |
| 1777758350 | 18.89° C | 10% | 1016.5 hPa | 0 mm | - | 618 W/m² | - |
| 1777758047 | 18.89° C | 10% | 1016.4 hPa | 0 mm | - | 700 W/m² | - |
| 1777757744 | 18.33° C | 10% | 1016.5 hPa | 0 mm | - | 719 W/m² | - |
| 1777757442 | 18.33° C | 10% | 1016.5 hPa | 0 mm | - | 747 W/m² | - |
* Rain latest hour (hover to see other rain measurements)
** Current wind speed in m/s (hover to see current wind gust speed)